TimeCST,TemperatureF,Dew PointF,Humidity,Sea Level PressureIn,VisibilityMPH,Wind Direction,Wind SpeedMPH,Gust SpeedMPH,PrecipitationIn,Events,Conditions,WindDirDegrees,DateUTC
12:56 AM,28.0,24.1,85,29.72,10.0,Calm,Calm,-,N/A,,Clear,0,2011-11-19 06:56:00
1:56 AM,28.0,25.0,88,29.73,10.0,Calm,Calm,-,N/A,,Clear,0,2011-11-19 07:56:00
2:56 AM,28.0,24.1,85,29.75,10.0,Calm,Calm,-,N/A,,Clear,0,2011-11-19 08:56:00
3:56 AM,26.1,25.0,96,29.74,9.0,NE,3.5,-,N/A,,Clear,50,2011-11-19 09:56:00
4:56 AM,28.0,26.1,92,29.75,10.0,NE,3.5,-,N/A,,Clear,40,2011-11-19 10:56:00
5:56 AM,28.0,26.1,92,29.78,10.0,Calm,Calm,-,N/A,,Partly Cloudy,0,2011-11-19 11:56:00
6:56 AM,30.9,27.0,85,29.77,10.0,NE,5.8,-,N/A,,Clear,50,2011-11-19 12:56:00
7:56 AM,30.9,27.0,85,29.78,10.0,NE,3.5,-,N/A,,Clear,40,2011-11-19 13:56:00
8:56 AM,33.1,28.0,82,29.78,10.0,NNE,8.1,-,N/A,,Overcast,30,2011-11-19 14:56:00
9:56 AM,35.1,28.9,78,29.76,10.0,NNE,9.2,-,N/A,,Overcast,30,2011-11-19 15:56:00
10:56 AM,36.0,30.0,79,29.75,10.0,NE,10.4,-,N/A,,Overcast,40,2011-11-19 16:56:00
11:56 AM,37.4,30.2,75,29.70,10.0,NNE,11.5,-,N/A,,Overcast,30,2011-11-19 17:56:00
12:56 PM,36.0,33.1,89,29.72,3.0,NE,9.2,-,0.00,,Overcast,50,2011-11-19 18:56:00
12:58 PM,35.6,33.8,93,29.68,2.5,NE,9.2,-,0.00,,Overcast,50,2011-11-19 18:58:00
1:12 PM,35.6,33.8,93,29.67,2.0,ENE,10.4,-,0.00,Rain,Light Rain,60,2011-11-19 19:12:00
1:32 PM,35.6,33.8,93,29.68,3.0,NE,8.1,-,0.01,Rain,Light Rain,40,2011-11-19 19:32:00
1:48 PM,35.6,33.8,93,29.67,2.5,NNE,6.9,-,0.02,Rain,Light Rain,30,2011-11-19 19:48:00
1:56 PM,35.1,34.0,96,29.72,2.5,NNE,6.9,-,0.02,Rain,Light Rain,30,2011-11-19 19:56:00
2:56 PM,33.1,32.0,96,29.71,2.5,NNE,5.8,-,0.04,Rain,Light Rain,20,2011-11-19 20:56:00
3:31 PM,33.8,32.0,93,29.71,1.5,North,5.8,-,0.01,Snow,Light Snow,10,2011-11-19 21:31:00
3:53 PM,33.8,32.0,93,29.72,0.8,North,8.1,-,0.03,Snow,Light Snow,360,2011-11-19 21:53:00
3:56 PM,32.0,30.9,96,29.75,0.8,North,10.4,17.3,0.03,Snow,Light Snow,10,2011-11-19 21:56:00
4:15 PM,32.0,30.2,93,29.74,1.0,North,13.8,20.7,0.01,Snow,Light Snow,360,2011-11-19 22:15:00
4:56 PM,30.9,28.9,92,29.78,1.5,North,11.5,23.0,0.02,Snow,Light Snow,10,2011-11-19 22:56:00
5:12 PM,30.2,28.4,93,29.76,2.0,North,11.5,21.9,0.00,Snow,Light Snow,10,2011-11-19 23:12:00
5:30 PM,30.2,28.4,93,29.78,1.8,North,12.7,21.9,0.01,Snow,Light Snow,10,2011-11-19 23:30:00
5:39 PM,30.2,28.4,93,29.78,1.5,North,12.7,21.9,0.01,Snow,Light Snow,10,2011-11-19 23:39:00
5:52 PM,30.2,28.4,93,29.79,1.5,North,9.2,-,0.01,Snow,Light Snow,10,2011-11-19 23:52:00
5:56 PM,30.9,28.9,92,29.83,1.5,North,11.5,17.3,0.01,Snow,Light Snow,10,2011-11-19 23:56:00
6:16 PM,30.2,28.4,93,29.79,3.0,North,11.5,20.7,0.00,Snow,Light Snow,10,2011-11-20 00:16:00
6:38 PM,30.2,28.4,93,29.80,6.0,North,8.1,-,0.00,Snow,Light Snow,10,2011-11-20 00:38:00
6:56 PM,30.9,28.0,89,29.85,4.0,North,9.2,-,0.01,Snow,Light Snow,10,2011-11-20 00:56:00
7:19 PM,30.2,28.4,93,29.83,4.0,North,10.4,17.3,0.00,Snow,Light Snow,360,2011-11-20 01:19:00
7:27 PM,30.2,28.4,93,29.83,4.0,North,10.4,-,0.00,Snow,Light Snow,10,2011-11-20 01:27:00
7:56 PM,30.0,28.0,92,29.88,8.0,North,8.1,-,0.00,,Overcast,360,2011-11-20 01:56:00
8:15 PM,30.2,26.6,86,29.86,6.0,North,9.2,18.4,0.00,Snow,Light Snow,360,2011-11-20 02:15:00
8:23 PM,30.2,26.6,86,29.87,5.0,North,9.2,-,0.00,Snow,Light Snow,360,2011-11-20 02:23:00
8:31 PM,30.2,26.6,86,29.88,6.0,North,9.2,-,0.00,Snow,Light Snow,350,2011-11-20 02:31:00
8:56 PM,28.9,26.1,89,29.93,10.0,NNW,10.4,-,0.00,,Overcast,340,2011-11-20 02:56:00
9:56 PM,28.9,25.0,85,29.99,10.0,NNW,11.5,17.3,N/A,,Overcast,340,2011-11-20 03:56:00
10:56 PM,28.0,24.1,85,30.04,10.0,North,10.4,-,N/A,,Overcast,350,2011-11-20 04:56:00
11:56 PM,26.6,23.0,86,30.06,10.0,NNW,5.8,-,N/A,,Overcast,330,2011-11-20 05:56:00